Helicity
111 201 133 66 71 116 77 83 102 42 94 81 74 58 68 113 97 77 81 81 81 87 83 95 184 220 268 265 262 254 256 235 236 179 207 277 235 181 161 130 129 187 186 227
153 92 93 93 85 105 156 132 103 167 142 97 84 50 74 71 93 61 65 72 71 85 93 210 208 176 169 162 196 204 167 167 163 179 194 201 217 219 194 182 150 141 233 238
179 111 36 55 76 117 157 177 126 218 172 105 142 77 36 98 71 68 98 97 120 131 184 201 138 82 136 162 171 174 181 202 203 217 227 220 216 272 269 229 174 146 149 190
199 223 146 112 104 119 129 160 134 166 135 102 82 88 29 50 102 110 95 54 60 147 235 270 233 161 87 108 140 162 165 156 147 149 165 159 159 160 194 237 186 155 139 122
352 228 171 155 148 170 205 186 239 152 138 182 116 107 52 170 101 95 119 180 188 193 222 187 171 132 130 134 147 147 147 151 143 108 119 126 125 127 133 162 189 200 162 134
180 229 226 251 192 148 212 242 159 117 112 120 106 89 68 89 86 113 124 97 106 108 117 135 146 173 146 123 126 121 123 126 136 131 99 88 95 103 110 110 143 172 184 203
202 268 252 277 237 143 136 191 159 150 155 133 168 133 96 113 115 147 63 96 104 106 136 151 130 127 112 98 86 87 108 108 125 140 149 156 156 139 129 119 123 165 168 202
156 111 228 236 245 244 199 147 175 150 110 134 160 116 167 213 214 103 175 152 118 134 123 114 107 87 81 66 67 67 89 109 145 165 177 209 213 189 186 196 196 166 176 190
192 109 200 232 287 262 230 175 172 212 175 126 112 131 148 203 220 229 123 99 99 105 94 81 67 47 38 51 72 90 106 120 132 144 153 182 201 233 220 195 192 230 221 234
182 217 114 122 238 248 211 156 184 190 165 128 71 59 103 115 130 138 117 105 91 63 74 78 61 50 50 69 84 104 101 91 107 131 159 172 186 186 169 164 174 204 226 207
110 110 111 114 122 134 156 145 156 179 173 183 113 98 99 73 96 102 83 106 90 79 101 80 62 54 57 90 83 95 98 100 84 93 118 135 138 145 150 161 175 229 254 266
72 85 121 94 114 164 95 88 164 108 123 156 169 118 43 62 95 108 121 81 45 110 104 72 52 51 81 94 86 99 106 104 83 96 101 113 122 140 181 206 200 184 184 207
31 61 119 85 64 91 93 81 77 124 132 87 109 99 124 150 95 50 25 25 70 87 91 54 68 72 82 67 74 86 92 107 94 86 81 104 123 145 179 178 222 229 237 222
80 57 85 108 99 78 92 76 86 135 123 95 101 137 123 101 35 45 73 84 85 75 72 65 65 73 98 102 54 58 99 122 104 88 83 99 111 112 119 121 138 157 182 182
76 72 73 84 85 91 75 72 73 104 110 103 90 71 47 54 63 62 57 73 54 61 57 63 62 68 65 38 38 47 69 87 60 81 96 77 74 65 78 91 93 86 88 79
58 55 79 69 54 59 63 56 66 69 55 44 106 126 203 145 123 86 67 46 40 45 47 44 54 53 39 18 17 32 45 44 66 68 64 63 48 65 83 84 81 86 83 84
47 57 53 61 44 30 38 32 56 68 78 60 53 48 110 124 73 63 45 41 37 46 43 46 47 29 6 4 1 9 16 44 48 40 34 41 47 67 65 71 86 93 89 88
46 42 58 49 43 47 20 56 35 69 49 49 31 63 85 120 55 55 52 59 49 43 38 46 38 15 4 4 5 -3 -6 6 19 16 17 27 41 52 61 79 93 98 92 100
31 41 34 30 22 30 32 30 45 53 24 64 50 62 108 79 60 50 63 68 56 50 61 50 26 10 11 7 -3 -0 12 13 17 21 4 -3 1 14 29 61 63 65 76 82
33 36 31 24 33 18 25 15 32 51 37 26 84 60 52 67 54 47 98 105 77 62 53 41 13 28 11 3 -2 11 20 11 10 -2 -5 -11 -13 -6 -0 -7 -14 -15 -14 -12
51 55 32 28 27 32 8 11 37 42 33 65 88 68 68 78 51 53 95 86 59 59 73 52 26 35 15 11 10 29 19 13 2 5 -1 -2 -8 -3 -8 -9 -7 -3 4 -8
63 55 55 55 47 29 65 64 61 50 83 67 84 82 92 81 69 73 82 91 85 79 71 47 57 40 24 24 27 34 26 5 10 19 12 7 -0 3 -10 -2 -14 -17 1 14
61 66 42 38 23 25 12 55 98 79 65 68 63 82 82 67 50 50 71 100 94 104 83 66 64 56 27 33 31 40 14 5 6 14 10 12 10 8 -1 3 9 16 27 35
70 44 69 82 35 31 43 86 87 79 78 71 87 79 64 52 43 51 70 103 101 119 84 99 101 65 37 33 41 50 38 16 32 41 37 30 31 34 30 25 25 36 40 36
104 77 83 76 31 49 45 62 74 81 69 64 64 55 46 44 41 45 79 115 108 147 140 139 126 103 73 64 54 74 48 55 60 54 49 49 42 50 63 58 44 47 47 54
138 126 144 68 25 68 62 77 139 129 81 74 58 50 43 36 41 41 51 112 113 133 168 162 128 123 132 122 99 91 75 73 84 68 58 48 52 54 48 59 59 66 63 65
Wind_Speed
39 49 55 51 45 46 51 63 69 59 47 57 76 75 70 65 55 57 60 63 64 61 58 55 45 47 51 53 54 52 53 54 47 39 41 37 36 37 39 41 43 42 34 34
54 72 60 49 53 60 54 61 68 46 44 53 59 71 74 70 60 60 65 67 67 62 60 42 45 48 54 58 57 56 57 58 56 55 48 48 42 43 43 43 44 51 54 49
57 40 34 47 48 61 58 61 57 56 47 53 59 73 69 68 70 65 58 57 59 60 55 45 43 41 42 45 50 54 58 59 58 57 58 57 57 50 44 45 47 48 51 57
53 41 46 45 51 51 60 50 50 47 51 66 50 72 62 60 60 57 57 58 56 43 38 38 39 40 38 39 41 45 48 50 52 55 58 58 57 57 52 48 48 47 45 48
55 59 48 50 49 44 54 37 41 44 53 53 55 62 56 33 53 49 42 37 34 32 31 34 38 39 37 41 44 45 48 49 49 45 47 50 54 57 59 61 53 49 47 43
47 44 42 45 45 40 32 32 36 45 50 71 62 59 56 50 47 40 37 36 34 34 33 34 34 41 43 44 47 50 51 53 55 56 52 49 50 52 54 57 56 52 50 44
48 47 41 39 39 26 33 37 54 62 64 67 48 59 57 46 31 28 31 30 31 32 31 37 40 43 45 49 52 53 56 58 59 59 60 59 57 56 56 59 62 62 55 49
46 64 56 50 46 49 39 47 51 69 68 63 47 62 53 32 25 23 23 28 31 33 33 37 41 45 49 51 54 56 58 60 60 61 63 64 63 62 60 58 59 57 56 53
42 38 36 45 42 41 38 56 44 53 50 55 56 54 45 36 37 33 32 34 35 37 38 39 44 47 50 52 55 57 58 59 60 61 62 62 62 62 61 59 59 58 50 51
29 30 28 33 33 35 37 35 47 48 62 66 57 58 64 50 44 42 41 42 39 35 37 41 45 48 50 52 53 55 56 57 59 59 61 62 62 59 57 56 54 56 56 48
26 24 25 24 37 27 26 35 41 44 46 57 58 59 44 36 33 32 33 36 39 38 39 45 48 49 47 49 52 53 54 56 57 59 60 59 57 56 54 55 52 54 52 50
26 21 22 30 23 22 33 36 39 42 53 47 47 52 24 20 20 23 31 38 39 34 40 46 48 48 46 48 51 53 54 56 58 58 57 55 56 56 57 59 58 56 54 51
26 23 21 30 28 30 38 39 23 35 41 46 49 44 16 16 23 30 33 35 32 35 41 48 48 48 46 48 50 54 57 57 56 55 54 55 55 56 56 55 55 54 52 49
28 30 33 34 34 25 29 25 24 31 43 42 42 30 31 24 29 28 32 33 36 37 42 44 45 46 45 48 51 54 52 53 53 53 51 52 53 52 50 48 48 49 48 48
31 33 28 36 34 33 35 29 12 17 36 44 47 53 27 27 32 28 31 32 36 38 39 40 42 43 47 49 47 47 47 48 47 46 48 48 48 47 46 45 44 43 45 46
28 31 33 40 41 47 51 46 39 37 48 72 61 53 38 30 28 32 32 33 36 37 37 37 39 43 45 45 43 44 43 44 42 44 44 43 43 44 43 43 44 45 45 45
25 27 30 34 35 48 63 52 27 32 32 20 31 44 36 31 31 35 33 33 33 33 32 34 37 38 40 42 43 42 41 41 40 40 41 42 42 42 42 43 43 44 44 43
23 26 30 35 38 51 40 33 24 14 20 16 28 29 20 28 27 31 32 29 28 28 28 30 32 34 37 39 41 41 41 40 39 40 41 42 41 41 42 43 43 43 43 44
22 23 30 30 39 51 50 34 29 12 35 12 19 34 26 28 28 34 26 24 22 23 24 26 27 30 34 38 39 40 41 40 40 41 42 42 41 41 43 44 45 44 44 45
31 36 35 30 38 40 31 34 33 30 39 36 11 23 39 26 36 37 14 16 20 21 21 22 25 27 31 35 37 40 41 41 41 42 42 42 42 43 45 46 46 47 47 48
27 34 44 46 45 47 33 28 24 35 35 25 4 5 10 23 34 22 13 19 20 19 18 19 22 24 27 30 33 36 37 38 38 38 39 40 41 43 44 44 44 45 45 46
16 22 33 34 43 51 23 28 35 26 21 19 13 12 12 17 21 18 17 18 16 17 15 16 20 21 21 25 28 31 32 33 34 35 36 37 38 39 39 41 41 42 42 43
32 27 33 26 36 36 29 35 23 26 21 23 18 15 16 19 21 18 21 18 16 15 12 13 17 17 16 19 23 25 26 27 28 30 31 32 32 33 33 36 38 39 40 41
44 42 41 42 47 46 33 27 27 26 24 23 20 19 21 25 25 21 23 19 16 13 11 10 12 13 12 13 17 20 21 22 24 26 27 28 30 32 34 37 39 39 41 40
44 28 37 45 56 45 37 25 20 21 24 27 28 29 31 31 33 29 21 23 19 16 11 10 9 10 10 10 12 15 16 18 20 21 23 25 27 29 32 36 39 38 41 42
41 38 36 46 41 37 43 21 21 20 27 31 36 41 42 41 44 39 33 22 26 19 16 14 9 9 9 9 9 11 13 15 17 18 19 21 24 26 28 31 36 39 39 42
Wind_Direction
225 222 214 209 219 241 242 241 245 248 252 249 248 252 255 260 263 264 265 265 266 270 275 278 282 286 288 287 288 290 289 291 295 291 292 290 284 286 288 287 294 299 285 283
218 223 223 228 236 238 249 247 241 258 251 254 256 255 255 257 260 265 266 267 268 273 274 283 286 289 287 287 289 290 290 290 290 292 294 296 296 290 288 289 288 288 294 294
221 233 223 233 235 238 248 250 241 247 257 263 263 259 258 256 259 264 269 272 272 272 277 283 290 295 297 297 296 293 291 292 294 296 297 297 298 302 298 294 294 291 288 287
228 235 236 237 238 236 242 250 246 249 253 255 254 256 260 254 257 263 267 272 273 276 281 286 291 297 303 307 310 308 307 306 303 300 298 297 298 297 298 298 297 296 294 292
227 227 232 233 236 238 249 245 247 251 255 261 255 258 262 254 256 261 266 271 275 280 285 289 293 297 304 310 311 315 313 313 315 316 313 308 303 301 301 301 301 299 298 295
225 233 237 241 239 244 254 241 250 254 257 252 253 255 259 257 260 257 263 268 274 279 288 295 302 300 304 312 313 314 313 312 311 312 314 314 312 310 307 306 306 303 302 300
225 231 240 240 232 236 241 235 243 246 248 251 259 253 260 264 255 255 263 268 277 285 292 298 301 304 309 309 311 312 311 309 310 311 310 311 313 313 311 308 306 308 309 307
219 213 227 233 234 246 244 242 248 245 246 250 258 256 260 264 265 266 269 277 283 288 298 301 304 306 309 311 310 311 310 310 312 312 311 309 309 310 312 315 314 310 309 310
228 239 240 240 244 249 247 245 261 257 260 252 255 260 266 264 262 264 270 278 284 290 296 305 308 310 311 311 311 311 311 313 314 314 314 313 313 313 314 315 315 318 319 318
247 245 255 244 253 260 258 258 251 256 248 251 256 259 259 256 261 263 267 276 286 295 300 305 307 309 312 313 313 313 316 318 319 319 317 315 316 319 321 320 319 318 321 322
247 256 253 255 257 250 263 256 259 260 263 256 258 262 276 265 265 262 271 283 290 295 301 303 306 309 313 316 316 317 321 321 322 321 320 321 324 326 327 325 327 326 325 328
264 268 261 264 275 268 266 267 259 260 257 266 273 271 288 279 268 273 282 288 293 301 304 306 306 309 314 316 317 318 319 320 323 323 325 327 326 326 326 324 328 328 327 330
272 281 278 274 280 272 265 261 269 273 273 266 267 273 276 291 279 283 288 294 304 306 308 306 308 312 317 317 317 316 316 316 324 328 331 330 328 330 328 328 331 332 335 340
299 281 277 272 277 287 276 269 268 274 267 271 271 275 273 278 282 288 294 301 304 308 310 313 315 315 322 322 320 317 320 322 325 329 334 333 331 334 339 341 338 341 344 347
300 286 296 282 284 289 285 281 229 246 273 270 270 264 277 272 278 292 298 304 306 310 315 320 321 324 324 325 327 327 330 329 332 335 339 338 340 342 348 354 355 357 355 357
313 296 292 286 279 273 273 278 278 269 268 251 259 263 273 282 290 290 299 305 308 313 316 320 327 330 333 337 336 336 336 340 344 341 345 350 353 355 359 3 3 5 4 6
318 311 302 294 292 276 265 276 272 274 277 259 262 268 284 278 284 285 297 303 311 319 322 327 330 335 341 347 350 353 351 349 353 354 355 354 359 2 5 9 11 12 12 16
317 316 305 296 287 267 283 305 303 241 273 276 275 282 287 284 293 296 300 306 318 325 325 332 340 343 352 5 8 10 8 2 4 4 3 3 6 11 15 17 19 19 19 20
325 314 309 304 281 265 279 298 299 304 286 241 256 271 281 289 293 294 310 312 327 323 329 344 345 354 7 11 21 29 22 18 14 10 12 17 21 22 24 26 27 29 28 25
294 284 287 299 282 272 296 295 281 285 291 285 198 261 265 283 279 289 321 324 320 324 345 353 360 7 11 29 41 40 35 32 23 21 23 24 28 31 35 37 37 37 36 34
301 289 275 271 274 270 295 308 300 281 288 316 62 304 290 283 287 311 329 312 317 332 356 360 5 12 31 47 44 43 43 36 32 28 28 28 29 35 39 39 38 38 39 41
324 308 294 289 281 269 319 305 284 307 333 346 349 335 327 317 314 320 318 309 324 329 355 359 358 9 35 49 51 51 46 44 40 37 35 33 33 37 41 42 42 41 40 37
298 298 298 300 293 297 310 301 317 312 322 325 341 339 337 331 322 327 315 309 310 324 348 354 359 6 26 51 60 58 60 55 46 37 35 33 35 37 43 38 36 32 32 30
285 286 288 290 288 290 301 309 313 312 314 323 328 326 326 320 322 325 316 315 302 307 316 343 0 2 18 53 61 56 66 62 48 35 30 28 24 25 25 21 20 22 18 20
288 295 289 288 281 298 299 305 311 316 315 312 312 311 311 312 310 314 316 306 304 292 294 308 331 347 5 21 42 55 63 49 44 35 20 24 19 20 21 17 12 16 13 12
283 284 282 287 299 296 295 306 309 314 310 310 307 304 304 302 299 300 304 302 297 292 284 283 296 321 345 7 23 41 50 46 32 27 20 8 11 12 16 18 12 11 12 9